TimeEST,TemperatureF,Dew PointF,Humidity,Sea Level PressureIn,VisibilityMPH,Wind Direction,Wind SpeedMPH,Gust SpeedMPH,PrecipitationIn,Events,Conditions,WindDirDegrees,DateUTC
12:15 AM,19.0,15.3,85,30.38,10.0,Calm,Calm,-,N/A,,Clear,0,2013-01-15 05:15:00
12:35 AM,19.0,14.9,84,30.38,10.0,Calm,Calm,-,N/A,,Clear,0,2013-01-15 05:35:00
12:54 AM,18.3,14.7,86,30.39,10.0,Calm,Calm,-,N/A,,Clear,0,2013-01-15 05:54:00
1:15 AM,16.7,13.8,88,30.39,10.0,Calm,Calm,-,N/A,,Scattered Clouds,0,2013-01-15 06:15:00
1:34 AM,16.7,14.5,91,30.39,7.0,Calm,Calm,-,N/A,,Scattered Clouds,0,2013-01-15 06:34:00
1:55 AM,19.2,16.5,89,30.39,7.0,SSE,3.5,-,N/A,,Mostly Cloudy,160,2013-01-15 06:55:00
2:14 AM,20.7,16.3,83,30.39,10.0,Calm,Calm,-,N/A,,Overcast,0,2013-01-15 07:14:00
2:35 AM,20.3,17.2,88,30.39,7.0,Calm,Calm,-,N/A,,Mostly Cloudy,0,2013-01-15 07:35:00
2:55 AM,19.8,16.7,88,30.39,10.0,Calm,Calm,-,N/A,,Mostly Cloudy,0,2013-01-15 07:55:00
3:14 AM,23.0,18.5,83,30.39,10.0,Calm,Calm,-,N/A,,Overcast,0,2013-01-15 08:14:00
3:35 AM,26.2,17.1,68,30.38,10.0,WNW,3.5,-,N/A,,Mostly Cloudy,300,2013-01-15 08:35:00
3:54 AM,26.2,16.0,65,30.38,10.0,WNW,3.5,-,N/A,,Scattered Clouds,300,2013-01-15 08:54:00
4:15 AM,26.2,16.2,66,30.38,10.0,NW,3.5,-,N/A,,Scattered Clouds,320,2013-01-15 09:15:00
4:35 AM,25.7,16.3,68,30.38,10.0,NW,3.5,-,N/A,,Scattered Clouds,320,2013-01-15 09:35:00
4:54 AM,25.7,15.6,66,30.38,10.0,Calm,Calm,-,N/A,,Scattered Clouds,0,2013-01-15 09:54:00
5:15 AM,26.1,16.0,66,30.38,10.0,Calm,Calm,-,N/A,,Scattered Clouds,0,2013-01-15 10:15:00
5:54 AM,21.6,16.0,79,30.37,10.0,Calm,Calm,-,N/A,,Scattered Clouds,0,2013-01-15 10:54:00
6:15 AM,18.3,15.3,88,30.37,10.0,Calm,Calm,-,N/A,,Scattered Clouds,0,2013-01-15 11:15:00
6:34 AM,17.4,14.7,89,30.37,7.0,Calm,Calm,-,N/A,,Mostly Cloudy,0,2013-01-15 11:34:00
7:15 AM,16.3,14.0,90,30.37,7.0,Calm,Calm,-,N/A,,Mostly Cloudy,0,2013-01-15 12:15:00
7:34 AM,16.3,14.2,91,30.37,10.0,Calm,Calm,-,N/A,,Mostly Cloudy,0,2013-01-15 12:34:00
7:55 AM,15.8,13.8,92,30.37,10.0,Calm,Calm,-,N/A,,Scattered Clouds,0,2013-01-15 12:55:00
8:15 AM,14.9,13.1,93,30.37,7.0,Calm,Calm,-,N/A,,Scattered Clouds,0,2013-01-15 13:15:00
8:34 AM,16.7,14.7,92,30.38,10.0,Calm,Calm,-,N/A,,Mostly Cloudy,0,2013-01-15 13:34:00
8:55 AM,18.3,15.6,89,30.39,10.0,Calm,Calm,-,N/A,,Scattered Clouds,0,2013-01-15 13:55:00
9:14 AM,20.5,17.1,87,30.39,10.0,Calm,Calm,-,N/A,,Mostly Cloudy,0,2013-01-15 14:14:00
9:35 AM,23.4,18.9,83,30.39,10.0,Calm,Calm,-,N/A,,Mostly Cloudy,0,2013-01-15 14:35:00
9:54 AM,25.0,19.2,79,30.39,10.0,South,3.5,-,N/A,,Overcast,180,2013-01-15 14:54:00
10:15 AM,26.1,19.2,75,30.39,10.0,South,3.5,-,N/A,,Mostly Cloudy,170,2013-01-15 15:15:00
10:35 AM,26.6,18.5,71,30.40,10.0,SSE,6.9,-,N/A,,Overcast,150,2013-01-15 15:35:00
10:54 AM,27.0,18.7,71,30.40,10.0,SSE,4.6,-,N/A,,Mostly Cloudy,150,2013-01-15 15:54:00
11:15 AM,27.9,19.4,71,30.40,10.0,South,6.9,-,N/A,,Overcast,170,2013-01-15 16:15:00
11:34 AM,29.3,19.4,67,30.39,10.0,South,5.8,-,N/A,,Mostly Cloudy,170,2013-01-15 16:34:00
11:55 AM,30.6,18.7,61,30.38,10.0,SSE,4.6,-,N/A,,Overcast,160,2013-01-15 16:55:00
12:15 PM,30.9,19.0,61,30.36,10.0,SSE,8.1,-,N/A,,Overcast,150,2013-01-15 17:15:00
12:34 PM,30.7,18.3,60,30.33,10.0,ESE,4.6,-,N/A,,Overcast,110,2013-01-15 17:34:00
1:14 PM,30.6,17.2,58,30.34,10.0,SSE,5.8,-,N/A,,Overcast,150,2013-01-15 18:14:00
1:35 PM,31.5,17.2,56,30.33,10.0,South,4.6,-,N/A,,Overcast,180,2013-01-15 18:35:00
1:55 PM,30.9,17.6,58,30.32,10.0,South,5.8,-,N/A,,Overcast,190,2013-01-15 18:55:00
2:14 PM,30.2,17.1,58,30.30,10.0,Calm,Calm,-,N/A,,Mostly Cloudy,0,2013-01-15 19:14:00
2:35 PM,30.0,16.0,56,30.30,10.0,Calm,Calm,-,N/A,,Mostly Cloudy,0,2013-01-15 19:35:00
2:55 PM,30.0,17.1,59,30.29,10.0,Calm,Calm,-,N/A,,Overcast,0,2013-01-15 19:55:00
3:14 PM,30.0,17.1,59,30.29,10.0,ESE,3.5,-,N/A,,Overcast,110,2013-01-15 20:14:00
3:35 PM,30.7,17.2,57,30.29,10.0,Calm,Calm,-,N/A,,Mostly Cloudy,0,2013-01-15 20:35:00
3:54 PM,30.6,17.1,57,30.28,10.0,Calm,Calm,-,N/A,,Scattered Clouds,0,2013-01-15 20:54:00
4:15 PM,30.6,17.8,59,30.28,10.0,Calm,Calm,-,N/A,,Clear,0,2013-01-15 21:15:00
4:34 PM,30.6,17.8,59,30.28,10.0,Calm,Calm,-,N/A,,Clear,0,2013-01-15 21:34:00
4:55 PM,30.4,18.0,60,30.27,10.0,Calm,Calm,-,N/A,,Scattered Clouds,0,2013-01-15 21:55:00
5:14 PM,29.5,17.4,61,30.27,10.0,Calm,Calm,-,N/A,,Scattered Clouds,0,2013-01-15 22:14:00
5:35 PM,29.3,18.1,63,30.27,10.0,Calm,Calm,-,N/A,,Mostly Cloudy,0,2013-01-15 22:35:00
5:55 PM,29.1,18.1,64,30.27,10.0,Calm,Calm,-,N/A,,Overcast,0,2013-01-15 22:55:00
6:14 PM,28.0,18.5,67,30.28,10.0,South,3.5,-,N/A,,Scattered Clouds,170,2013-01-15 23:14:00
6:35 PM,27.5,18.3,68,30.27,10.0,Calm,Calm,-,N/A,,Clear,0,2013-01-15 23:35:00
6:54 PM,27.0,18.0,69,30.27,10.0,Calm,Calm,-,N/A,,Clear,0,2013-01-15 23:54:00
7:15 PM,26.4,17.4,69,30.26,10.0,Calm,Calm,-,N/A,,Clear,0,2013-01-16 00:15:00
7:35 PM,24.8,17.4,74,30.25,10.0,Calm,Calm,-,N/A,,Clear,0,2013-01-16 00:35:00
7:54 PM,21.6,17.6,85,30.24,5.0,Calm,Calm,-,N/A,,Clear,0,2013-01-16 00:54:00
8:15 PM,21.7,16.9,82,30.22,7.0,Calm,Calm,-,N/A,,Clear,0,2013-01-16 01:15:00
8:34 PM,19.6,16.7,89,30.21,10.0,Calm,Calm,-,N/A,,Clear,0,2013-01-16 01:34:00
8:55 PM,20.3,17.8,90,30.19,10.0,Calm,Calm,-,N/A,,Clear,0,2013-01-16 01:55:00
9:14 PM,21.2,18.7,90,30.19,10.0,Calm,Calm,-,N/A,,Clear,0,2013-01-16 02:14:00
9:35 PM,20.1,17.4,89,30.19,7.0,Calm,Calm,-,N/A,,Clear,0,2013-01-16 02:35:00
9:55 PM,19.2,16.3,89,30.18,5.0,Calm,Calm,-,N/A,,Clear,0,2013-01-16 02:55:00
10:14 PM,18.9,16.5,91,30.17,7.0,Calm,Calm,-,N/A,,Clear,0,2013-01-16 03:14:00
10:35 PM,18.1,16.3,93,30.16,7.0,Calm,Calm,-,N/A,,Clear,0,2013-01-16 03:35:00
10:54 PM,19.0,16.9,91,30.16,10.0,Calm,Calm,-,N/A,,Clear,0,2013-01-16 03:54:00
11:15 PM,19.8,17.4,91,30.15,10.0,Calm,Calm,-,N/A,,Clear,0,2013-01-16 04:15:00
11:35 PM,21.9,18.1,85,30.14,10.0,Calm,Calm,-,N/A,,Clear,0,2013-01-16 04:35:00
11:54 PM,21.7,18.1,86,30.13,10.0,Calm,Calm,-,N/A,,Clear,0,2013-01-16 04:54:00